This is the latest recevied weather packets stored in our database for station/object DM2KB-13. If no packets are shown the sender has not sent any weather packets the latest 10 day(s).
| Time | Temp. | Humidity | Pressure | Rain* | Wind** | Luminosity | Snow |
|---|---|---|---|---|---|---|---|
| 1777895921 | 20° C | 67% | 1011.7 hPa | 0 mm | - | 211 W/m² | - |
| 1777895621 | 20° C | 66% | 1011.7 hPa | 0 mm | - | 229 W/m² | - |
| 1777895321 | 20.56° C | 65% | 1011.8 hPa | 0 mm | - | 230 W/m² | - |
| 1777895020 | 20.56° C | 65% | 1011.8 hPa | 0 mm | - | 269 W/m² | - |
| 1777894720 | 20° C | 67% | 1011.8 hPa | 0 mm | - | 320 W/m² | - |
| 1777894420 | 20° C | 66% | 1011.8 hPa | 0 mm | - | 350 W/m² | - |
| 1777894120 | 20.56° C | 65% | 1011.8 hPa | 0 mm | - | 330 W/m² | - |
| 1777893819 | 20.56° C | 66% | 1011.8 hPa | 0 mm | - | 295 W/m² | - |
| 1777893519 | 20.56° C | 65% | 1011.8 hPa | 0 mm | - | 316 W/m² | - |
| 1777893219 | 20.56° C | 66% | 1011.9 hPa | 0 mm | - | 385 W/m² | - |
| 1777892918 | 20.56° C | 66% | 1011.9 hPa | 0 mm | - | 413 W/m² | - |
| 1777892618 | 20.56° C | 66% | 1011.9 hPa | 0 mm | - | 429 W/m² | - |
| 1777892318 | 20.56° C | 67% | 1011.9 hPa | 0 mm | - | 445 W/m² | - |
| 1777892018 | 20.56° C | 66% | 1012 hPa | 0 mm | - | 427 W/m² | - |
| 1777891717 | 20.56° C | 65% | 1012 hPa | 0 mm | - | 327 W/m² | - |
| 1777891417 | 20.56° C | 66% | 1012.1 hPa | 0 mm | - | 417 W/m² | - |
| 1777891117 | 20.56° C | 66% | 1012.1 hPa | 0 mm | - | 422 W/m² | - |
| 1777890817 | 21.11° C | 65% | 1012 hPa | 0 mm | - | 427 W/m² | - |
| 1777890516 | 21.11° C | 64% | 1012.1 hPa | 0 mm | - | 403 W/m² | - |
| 1777890216 | 21.11° C | 64% | 1012 hPa | 0 mm | - | 438 W/m² | - |
| 1777889916 | 21.11° C | 64% | 1012.1 hPa | 0 mm | - | 403 W/m² | - |
| 1777889615 | 21.67° C | 64% | 1012.1 hPa | 0 mm | - | 503 W/m² | - |
| 1777889315 | 21.11° C | 66% | 1012.1 hPa | 0 mm | - | 691 W/m² | - |
| 1777889015 | 21.11° C | 65% | 1012.1 hPa | 0 mm | - | 863 W/m² | - |
| 1777888714 | 21.67° C | 63% | 1012.2 hPa | 0 mm | - | 403 W/m² | - |
* Rain latest hour (hover to see other rain measurements)
** Current wind speed in m/s (hover to see current wind gust speed)